STARLINK-3795, 52264

Orbit data source: Space-Track

STARLINK-3795, 52264 is a payload satellite owned by SpaceX/Seattle (US) in LEO that was launched on Thu, 21 Apr 2022 UTC via an FALCON 9 launch vehicle from the Air Force Eastern Test Range (AFETR). Payload-class satellites include a variety of spacecraft equipped with specific instruments for various scientific and technological missions. These include communications satellites like Starlink; space stations such as the ISS; scientific satellites like the Hubble; Earth observation satellites from companies like Planet Labs, Umbra, and HawkEye 360; GPS; miniature CubeSats for education and research; and military/defense satellites.

Loading next visibility...
Identifier
52264, 2022-041D
Orbit
LEO
Country
Flag of USUS
Related business
Manufacturer
SpaceX/Seattle
Mission
Operational Commercial Communications
Bus & Motor
STARLINK, Unknown motor
Mass
297 kg wet, ~275 kg dry
Launch date (UTC)
2022-04-21 (4 years ago)
Launch vehicle
FALCON 9
Launch site
Air Force Eastern Test Range (AFETR)
Object type
Payload
Rocket body
Debris
Shape & HBR
Box + 1 Pan, 10.1 m
Radar Cross Section
11.087 m², Large (>1 m²)

Expand to show TLE details & history
Last TLE update: 2 days ago

TLE from 2 days ago
0 STARLINK-3795
1 52264U 22041D   26263.79778106 -.00000500  00000-0 -36623-5 0  9994
2 52264  53.1600 296.5791 0001177  83.4331 276.6805 15.34389593244041
Epoch: 2026-09-20T19:08Z
TLE epoch observation values (Epoch: 2026-09-20T19:08:48.283Z)
Latitude
-0.00007°
Longitude
9.69107°
Altitude
463.542 km
Speed
7.636 km/s
True Right ascension
19h 46m 18s
True Declination
0° 00' 00"
Sunlit
Object was in full shadow at epoch
Visualization orbit readout
Latitude
Unknown
Longitude
Unknown
Altitude
Unknown
Speed
Unknown
Apparent Right ascension
Unknown
Apparent Declination
Unknown
Sunlit
N/A
Visualization observer readout
Local Sidereal Time
08:08:26
Azimuth
Unknown
Elevation
Unknown
Doppler factor
Unknown
Orbital elements
Apogee altitude
463.796 km
Perigee altitude
462.186 km
Semi-major axis
6,841.128 km
Eccentricity
0.00012
Inclination
53.16°
RAAN
296.5791°
Arg. of periapsis
83.4331°
True anomaly
276.6671°
Mean anomaly
276.6805°
Eccentric anomaly
276.6738°
Mean motion
3.83576 °/min
Orbital period
93.85 mins
BSTAR
-0.0000036623
Loading maneuver chart data...
Computing Atmospheric mass density...

Documentation

Showing up to 5 results
|